sat.trackr.live / text

‹ back to catalog

STARLINK-11584 [DTC]

NORAD 63106 · 2025-039C

PAYLOAD ACTIVE UNKNOWN

§ Identity

Operator
Country
US
Launch date
2025-02-27
Launch site
AFETR
Launch vehicle
Mass (kg)
RCS (m²)

Purposes: comms

External: N2YO · Heavens-Above · Gunter

§ Orbital elements

Epoch: 2026-05-25T00:05:31.934112Z

Period
91.66 min
Inclination
43.0007°
Eccentricity
0.0004643
Mean motion
15.71057805 rev/d
Perigee alt
352.7 km
Apogee alt
359.0 km
Semi-major
6,734.0 km
B*
1.7156e-3
RAAN
137.2120°
Arg perigee
293.7269°
Mean anomaly
66.3112°
Rev number
7,161

§ Raw data

STARLINK-11584 [DTC]1 63106U 25039C   26145.00384183  .00227976  00000+0  17156-2 0  99942 63106  43.0007 137.2120 0004643 293.7269  66.3112 15.71057805 71616

JSON: /api/v1/satellites/63106 · /tle

For live sub-satellite position, see the globe view (requires WebGL).

§ Visibility from observer

Set your observer location to see the next 7 days of passes ≥ 10°. The values pass through the URL so the page stays shareable.

No JS? Fill the form by hand. The geolocation button needs JavaScript.